Regional Weather Roundup
Issued by NWS

Home | Current Version | Previous Version | Text Only | Print | Product List | Glossary On
Versions: 1 2 3 4 5 6 7 8 9 10 11 12 13 14 15 16 17 18 19 20 21 22 23 24 25 26 27 28 29 30 31 32 33 34 35 36 37 38 39 40 41 42 43 44 45 46 47 48 49 50
000
ASUS45 KPSR 291410
RWRAZ

ARIZONA HOURLY REGIONAL WEATHER ROUNDUP
NATIONAL WEATHER SERVICE PHOENIX AZ
700 AM MST SAT AUG 29 2015

NOTE: FAIR INDICATES FEW OR NO CLOUDS BELOW 12,000 FEET WITH NO
SIGNIFICANT WEATHER AND/OR OBSTRUCTIONS TO VISIBILITY.

AZZ001>003-036-291500-
NORTHWEST ARIZONA

CITY           SKY/WX    TMP DP  RH WIND       PRES   REMARKS
BULLHEAD CITY  CLEAR     88  54  31 N3        29.82R
KINGMAN        SUNNY     77  52  41 CALM      30.04R
$$

AZZ004>008-015-016-018-291500-
NORTH CENTRAL ARIZONA

CITY           SKY/WX    TMP DP  RH WIND       PRES   REMARKS
GRAND CANYON   SUNNY     53  43  68 NE3       30.32R
WILLIAMS       SUNNY     59  45  58 S10       30.37R
PRESCOTT       SUNNY     66  52  60 SW6       30.19R
FLAGSTAFF      SUNNY     52  48  86 CALM      30.35R
PAYSON         SUNNY     68  48  49 CALM      30.21R
PAGE           SUNNY     73  45  36 CALM      30.15R
$$

AZZ009>014-017-291500-
NORTHEAST ARIZONA

CITY           SKY/WX    TMP DP  RH WIND       PRES   REMARKS
WINSLOW        SUNNY     64  51  62 CALM      30.22R
SAINT JOHNS    SUNNY     61  55  81 CALM      30.26R
WINDOW ROCK    SUNNY     52  44  74 CALM      30.37R
SHOW LOW       MOSUNNY   59  48  67 CALM      30.31R
$$

AZZ023-291500-
GREATER PHOENIX AREA

CITY           SKY/WX    TMP DP  RH WIND       PRES   REMARKS
PHOENIX        MOSUNNY   88  57  34 E7        29.85R
BUCKEYE        SUNNY     88  61  40 CALM      29.85R
GLENDALE       MOSUNNY   84  61  45 CALM      29.87
LUKE AFB       SUNNY     84  64  49 NE1       29.85R
DEER VALLEY    SUNNY     87  55  33 E6        29.87R
SCOTTSDALE     SUNNY     86  58  38 CALM      29.90R
MESA-FALCON    MOSUNNY   88  55  33 NE6       29.88R
MESA-GATEWAY   MOSUNNY   81  59  47 SE7       29.90R
CHANDLER       MOSUNNY   84  61  45 CALM      29.87R
$$

AZZ027-028-291500-
SOUTHWEST MARICOPA COUNTY AND PINAL COUNTY

CITY           SKY/WX    TMP DP  RH WIND       PRES   REMARKS
CASA GRANDE    SUNNY     82  57  42 CALM      29.88R
GILA BEND      FAIR      90  60  37 S8        29.83R
$$

AZZ503-504-507>509-291500-
SOUTHEAST ARIZONA

CITY           SKY/WX    TMP DP  RH WIND       PRES   REMARKS
TUCSON         SUNNY     79  59  50 SE10      30.02R
DAVIS-MONTHAN  SUNNY     78  59  52 SE9       30.00R
RYAN FIELD     SUNNY     77  63  61 CALM      30.00R
NOGALES        SUNNY     68  58  70 CALM      30.11R
SIERRA VISTA   MOSUNNY   75  54  47 S5        30.17R
DOUGLAS        MOSUNNY   70  60  70 CALM      30.14R
SAFFORD        SUNNY     77  57  50 SE10      30.08R
$$

AZZ020-021-025-026-031-291500-
SOUTHWEST ARIZONA

CITY           SKY/WX    TMP DP  RH WIND       PRES   REMARKS
YUMA           CLEAR     89  67  47 S8        29.78R
$$

CAZ031-033-041-043-047-048-061-291500-
SOUTHERN CALIFORNIA

CITY           SKY/WX    TMP DP  RH WIND       PRES   REMARKS
DOWNTOWN L.A.  CLEAR     73  66  78 CALM      29.87R
L.A. AIRPORT   PTCLDY    71  67  87 CALM      29.88R
SAN DIEGO      PTCLDY    74  69  85 CALM      29.88S
BURBANK        CLEAR     74  55  51 CALM      29.89R
ONTARIO        CLEAR     73  58  59 CALM      29.90R
RIVERSIDE      CLEAR     73  56  54 CALM      29.90R
PALM SPRINGS   CLEAR     87  56  34 CALM      29.80R
EL CENTRO NAS  CLEAR     86  49  27 CALM      29.77R
IMPERIAL       CLEAR     88  51  28 SW6       29.75R
BLYTHE         CLEAR     88  61  40 N7        29.78R
NEEDLES        CLEAR     91  52  26 NW6       29.82R
$$

NVZ020-UTZ003-291500-
SOUTHERN NEVADA-UTAH

CITY           SKY/WX    TMP DP  RH WIND       PRES   REMARKS
LAS VEGAS      PTCLDY    88  46  23 SW5       29.87R
SALT LAKE CITY PTSUNNY   76  41  28 SE15      30.06R
$$

NMZ009-TXZ055-291500-
NEW MEXICO-WEST TEXAS

CITY           SKY/WX    TMP DP  RH WIND       PRES   REMARKS
ALBUQUERQUE    MOSUNNY   67  51  56 N9        30.31R
EL PASO        PTSUNNY   72  60  66 N12       30.16R
$$


........................KEY........................
SKY/WX - SKY CONDITION/WEATHER
TMP    - TEMPERATURE IN FAHRENHEIT
DP     - DEW POINT IN FAHRENHEIT
RH     - RELATIVE HUMIDITY IN PERCENT
WIND   - DIRECTION AND SPEED IN MILES PER HOUR (MPH)
VRB    - VARIABLE WIND DIRECTION
PRES   - MEAN SEA LEVEL PRESSURE IN INCHES OF MERCURY
         F - FALLING PRESSURE   R - RISING PRESSURE
         S - STEADY PRESSURE
VSB    - VISIBILITY IN MILES
HX     - HEAT INDEX IN FAHRENHEIT
WCI    - WIND CHILL INDEX IN FAHRENHEIT
TC     - TEMPERATURE IN CELSIUS WHICH IS ALSO KNOWN AS
         TEMPERATURE IN CENTIGRADE
AFB    - AIR FORCE BASE
         LUKE AFB IS LUKE AIR FORCE BASE
         DAVIS-MONTHAN IS DAVIS-MONTHAN AIR FORCE BASE
NAS    - NAVAL AIR STATION
         EL CENTRO NAS IS EL CENTRO NAVAL AIR STATION
N/A    - NOT AVAILABLE



USA.gov is the U.S. government's official web portal to all federal, state and local government web resources and services.